Location: ??????????
(54.8537°N, 38.8755°E)
Time: 22:23:01
(UTC+00:00)

Tiros 1 - Pass Details

Date: 20 September 2024
Orbit: 623 x 654 km, 48.4° (Epoch: 09 October)

Event Time Altitude Azimuth Distance (km) Brightness Sun altitude
Rises 15:08:33 0° 267° (W) 2,903 14.4 1.9°
Reaches altitude 10° 15:11:04 10° 257° (WSW) 1,998 11.7 1.6°
Maximum altitude 15:15:04 30° 196° (SSW) 1,121 8.6 1.0°
Drops below altitude 10° 15:19:06 10° 135° (SE) 2,006 9.3 0.4°
Sets 15:21:37 0° 125° (SE) 2,918 10.0 0.0°
